Retour au catalogue

THORAD DELTA 1 DEB

ActifSSO
NORAD 42599·DEBRIS·🇺🇸 United States

Lancé Nov 15, 1974 depuis Vandenberg Space Force Base

Loading…

Prochains Passages (prochaines 24 heures)

TLE

FraisSource: Space-Track

Époque: Sep 14, 2026, 13:38 UTC

1 42599U 74089FQ  26257.56860333  .00000369  00000-0  22683-2 0  9994
2 42599 101.5442 356.0289 0050641 303.7262  67.6159 12.63423233577822

Suivez THORAD DELTA 1 DEB en temps réel avec AllMySat

Download on the App Store